Regional Weather Roundup
Issued by NWS Sioux Falls, SD

Home | Current Version | Previous Version | Graphics & Text | Print | Product List | Glossary Off
Versions: 1 2 3 4 5 6 7 8 9 10 11 12 13 14 15 16 17 18 19 20 21 22 23 24 25 26 27 28 29 30 31 32 33 34 35 36 37 38 39 40 41 42 43 44 45 46 47 48 49 50

000
ASUS43 KFSD 031810
RWRFSD

WEATHER ROUNDUP FOR SE SOUTH DAKOTA/SW MINNESOTA/NW IOWA
NATIONAL WEATHER SERVICE SIOUX FALLS SD
100 PM CDT FRI JUL 03 2015

NOTE: "FAIR" INDICATES FEW OR NO CLOUDS BELOW 12,000 FEET WITH NO
SIGNIFICANT WEATHER AND OR OBSTRUCTIONS TO VISIBILITY.


SDZ038>040-050-052>070-031900-
SOUTHEAST SOUTH DAKOTA

CITY           SKY/WX    TMP DP  RH WIND       PRES   REMARKS
BROOKINGS      SUNNY     73  63  68 W3        30.01S
CHAMBERLAIN    MOSUNNY   77  65  66 CALM      30.00F
6HR MIN TEMP:  62; 6HR MAX TEMP:  77;

HURON          MOSUNNY   76  67  73 SW5       29.98S
6HR MIN TEMP:  58; 6HR MAX TEMP:  76;

MADISON        FAIR      73  66  78 W5        30.01S
MITCHELL       MOSUNNY   74  66  76 S8        30.01S
6HR MIN TEMP:  62; 6HR MAX TEMP:  74;

SIOUX FALLS    MOSUNNY   72  61  68 VRB7      30.00S
6HR MIN TEMP:  53; 6HR MAX TEMP:  74;

WINNER         FAIR      81  55  40 MISG      30.02F
YANKTON        CLOUDY    72  63  73 W5        30.00S
$$

MNZ071-072-080-081-089-090-097-098-031900-
SOUTHWEST MINNESOTA

CITY           SKY/WX    TMP DP  RH WIND       PRES   REMARKS
FAIRMONT       SUNNY     73  45  35 CALM      30.00S
JACKSON        SUNNY     73  55  53 NE3       30.01S
LUVERNE        SUNNY     75  57  53 SW5       30.01S
MARSHALL       SUNNY     77  57  50 NW6       29.97
6HR MIN TEMP:  55; 6HR MAX TEMP:  77;

MONTEVIDEO     SUNNY     81  64  57 CALM      29.97R
PIPESTONE      SUNNY     73  57  56 W6        30.01S
REDWOOD FALLS  SUNNY     77  56  48 W6        29.97S
TRACY          SUNNY     76  56  48 W3        29.99S
WINDOM         SUNNY     75  55  50 CALM      30.00S
WORTHINGTON    SUNNY     72  57  60 SW6       30.01S
$$

IAZ001>003-012>014-020>022-031-032-NEZ013-014-SDZ071-031900-
NORTHWEST IOWA

CITY           SKY/WX    TMP DP  RH WIND       PRES   REMARKS
CHEROKEE       SUNNY     72  53  52 CALM      30.01F
DENISON        SUNNY     72  55  56 VRB3      30.01S
ESTHERVILLE    SUNNY     74  57  55 CALM      30.00F
LE MARS        SUNNY     72  55  56 VRB3      30.02F
ORANGE CITY    SUNNY     70  55  60 SW5       30.01F
SHELDON        SUNNY     72  54  53 CALM      30.00F
SIOUX CITY     SUNNY     74  55  51 NW3       30.02S
6HR MIN TEMP:  54; 6HR MAX TEMP:  74;

SPENCER        SUNNY     75  54  47 VRB3      30.01F
6HR MIN TEMP:  48; 6HR MAX TEMP:  75;

STORM LAKE     SUNNY     72  50  46 CALM      30.03F
$$

ABBREVIATIONS USED IN REMARKS
   TC - TEMPERATURE IN CELSIUS
  WCI - WIND CHILL INDEX
   HX - HEAT INDEX
  VSB - VISIBILITY




USA.gov is the U.S. government's official web portal to all federal, state and local government web resources and services.